Time,TemperatureF,DewpointF,PressureIn,WindDirection,WindDirectionDegrees,WindSpeedMPH,WindSpeedGustMPH,Humidity,HourlyPrecipIn,Conditions,Clouds,dailyrainin,SoftwareType,DateUTC
2013-05-02 00:03:00,68.0,55.0,30.18,SE,135,0.0,0.0,63,0.00,,,0.00,,2013-05-02 04:03:00,
2013-05-02 00:12:00,67.0,54.0,30.18,SE,135,0.0,0.0,64,0.00,,,0.00,,2013-05-02 04:12:00,
2013-05-02 00:23:00,67.0,54.0,30.18,SE,135,0.0,0.0,64,0.00,,,0.00,,2013-05-02 04:23:00,
2013-05-02 00:33:00,67.0,55.0,30.18,SE,135,0.0,0.0,65,0.00,,,0.00,,2013-05-02 04:33:00,
2013-05-02 00:42:00,67.0,55.0,30.18,SE,135,0.0,0.0,65,0.00,,,0.00,,2013-05-02 04:42:00,
2013-05-02 00:52:00,66.0,54.0,30.18,ESE,112,0.0,0.0,66,0.00,,,0.00,,2013-05-02 04:52:00,
2013-05-02 01:02:00,66.0,54.0,30.18,ESE,112,0.0,0.0,66,0.00,,,0.00,,2013-05-02 05:02:00,
2013-05-02 01:12:00,66.0,54.0,30.18,ESE,112,0.0,0.0,66,0.00,,,0.00,,2013-05-02 05:12:00,
2013-05-02 01:22:00,67.0,55.0,30.18,SSE,157,0.0,0.0,66,0.00,,,0.00,,2013-05-02 05:22:00,
2013-05-02 01:32:00,67.0,55.0,30.18,SE,135,0.0,0.0,65,0.00,,,0.00,,2013-05-02 05:32:00,
2013-05-02 01:42:00,67.0,55.0,30.18,SE,135,0.0,0.0,65,0.00,,,0.00,,2013-05-02 05:42:00,
2013-05-02 01:52:00,67.0,55.0,30.18,SE,135,0.0,0.0,65,0.00,,,0.00,,2013-05-02 05:52:00,
2013-05-02 02:01:00,66.0,54.0,30.18,SE,135,0.0,0.0,66,0.00,,,0.00,,2013-05-02 06:01:00,
2013-05-02 02:12:00,66.0,54.0,30.18,SE,135,0.0,0.0,66,0.00,,,0.00,,2013-05-02 06:12:00,
2013-05-02 02:21:00,66.0,55.0,30.18,SE,135,0.0,0.0,67,0.00,,,0.00,,2013-05-02 06:21:00,
2013-05-02 02:32:00,65.0,53.0,30.18,SE,135,0.0,0.0,66,0.00,,,0.00,,2013-05-02 06:32:00,
2013-05-02 02:42:00,65.0,53.0,30.18,SE,135,0.0,0.0,66,0.00,,,0.00,,2013-05-02 06:42:00,
2013-05-02 02:52:00,65.0,53.0,30.17,SE,135,0.0,0.0,66,0.00,,,0.00,,2013-05-02 06:52:00,
2013-05-02 03:02:00,65.0,54.0,30.17,SE,135,0.0,0.0,67,0.00,,,0.00,,2013-05-02 07:02:00,
2013-05-02 03:11:00,65.0,54.0,30.17,SE,135,0.0,0.0,67,0.00,,,0.00,,2013-05-02 07:11:00,
2013-05-02 03:21:00,64.0,53.0,30.17,SE,135,0.0,0.0,67,0.00,,,0.00,,2013-05-02 07:21:00,
2013-05-02 03:32:00,64.0,53.0,30.17,SE,135,0.0,0.0,67,0.00,,,0.00,,2013-05-02 07:32:00,
2013-05-02 03:42:00,63.0,52.0,30.16,SE,135,0.0,0.0,68,0.00,,,0.00,,2013-05-02 07:42:00,
2013-05-02 03:52:00,63.0,52.0,30.16,SE,135,0.0,0.0,68,0.00,,,0.00,,2013-05-02 07:52:00,
2013-05-02 04:02:00,63.0,52.0,30.16,SE,135,0.0,0.0,68,0.00,,,0.00,,2013-05-02 08:02:00,
2013-05-02 04:11:00,63.0,52.0,30.16,SE,135,0.0,0.0,68,0.00,,,0.00,,2013-05-02 08:11:00,
2013-05-02 04:22:00,62.0,52.0,30.16,SE,135,0.0,0.0,69,0.00,,,0.00,,2013-05-02 08:22:00,
2013-05-02 04:32:00,61.0,52.0,30.16,SE,135,0.0,0.0,71,0.00,,,0.00,,2013-05-02 08:32:00,
2013-05-02 04:42:00,61.0,52.0,30.16,SE,135,0.0,0.0,71,0.00,,,0.00,,2013-05-02 08:42:00,
2013-05-02 04:52:00,61.0,52.0,30.16,SE,135,0.0,0.0,71,0.00,,,0.00,,2013-05-02 08:52:00,
2013-05-02 05:02:00,61.0,52.0,30.16,SE,135,0.0,0.0,71,0.00,,,0.00,,2013-05-02 09:02:00,
2013-05-02 05:12:00,61.0,52.0,30.16,SE,135,0.0,0.0,71,0.00,,,0.00,,2013-05-02 09:12:00,
2013-05-02 05:21:00,61.0,52.0,30.16,SE,135,0.0,0.0,71,0.00,,,0.00,,2013-05-02 09:21:00,
2013-05-02 05:32:00,60.0,51.0,30.17,SE,135,0.0,0.0,72,0.00,,,0.00,,2013-05-02 09:32:00,
2013-05-02 05:42:00,60.0,51.0,30.17,SE,135,0.0,0.0,72,0.00,,,0.00,,2013-05-02 09:42:00,
2013-05-02 05:52:00,60.0,51.0,30.17,SE,135,0.0,0.0,72,0.00,,,0.00,,2013-05-02 09:52:00,
2013-05-02 06:03:00,59.0,50.0,30.17,SE,135,0.0,0.0,72,0.00,,,0.00,,2013-05-02 10:03:00,
2013-05-02 06:12:00,59.0,50.0,30.17,SE,135,0.0,0.0,72,0.00,,,0.00,,2013-05-02 10:12:00,
2013-05-02 06:22:00,59.0,50.0,30.17,SE,135,0.0,0.0,73,0.00,,,0.00,,2013-05-02 10:22:00,
2013-05-02 06:33:00,59.0,51.0,30.17,SE,135,0.0,0.0,76,0.00,,,0.00,,2013-05-02 10:33:00,
2013-05-02 06:42:00,59.0,51.0,30.17,SE,135,0.0,0.0,76,0.00,,,0.00,,2013-05-02 10:42:00,
2013-05-02 06:52:00,59.0,51.0,30.17,SE,135,0.0,0.0,76,0.00,,,0.00,,2013-05-02 10:52:00,
2013-05-02 07:02:00,59.0,52.0,30.17,ESE,112,0.0,0.0,77,0.00,,,0.00,,2013-05-02 11:02:00,
2013-05-02 07:12:00,59.0,52.0,30.17,ESE,112,0.0,0.0,77,0.00,,,0.00,,2013-05-02 11:12:00,
2013-05-02 07:22:00,60.0,52.0,30.18,ESE,112,0.0,0.0,76,0.00,,,0.00,,2013-05-02 11:22:00,
2013-05-02 07:32:00,61.0,53.0,30.18,ESE,112,0.0,0.0,75,0.00,,,0.00,,2013-05-02 11:32:00,
2013-05-02 07:42:00,61.0,53.0,30.18,ESE,112,0.0,0.0,75,0.00,,,0.00,,2013-05-02 11:42:00,
2013-05-02 07:52:00,61.0,53.0,30.18,South,180,0.0,0.0,75,0.00,,,0.00,,2013-05-02 11:52:00,
2013-05-02 08:01:00,61.0,53.0,30.18,South,180,0.0,0.0,75,0.00,,,0.00,,2013-05-02 12:01:00,
2013-05-02 08:11:00,61.0,53.0,30.18,South,180,0.0,0.0,75,0.00,,,0.00,,2013-05-02 12:11:00,
2013-05-02 08:21:00,62.0,54.0,30.19,SSE,162,2.0,3.0,74,0.00,,,0.00,,2013-05-02 12:21:00,
2013-05-02 08:32:00,62.0,54.0,30.19,SE,135,0.0,3.0,74,0.00,,,0.00,,2013-05-02 12:32:00,
2013-05-02 08:42:00,62.0,54.0,30.19,SE,135,0.0,3.0,74,0.00,,,0.00,,2013-05-02 12:42:00,
2013-05-02 08:52:00,63.0,54.0,30.20,South,180,2.0,2.0,73,0.00,,,0.00,,2013-05-02 12:52:00,
2013-05-02 09:01:00,64.0,55.0,30.20,SE,135,0.0,2.0,73,0.00,,,0.00,,2013-05-02 13:01:00,
2013-05-02 09:11:00,64.0,55.0,30.20,SE,135,0.0,2.0,73,0.00,,,0.00,,2013-05-02 13:11:00,
2013-05-02 09:21:00,65.0,55.0,30.20,SSE,157,2.0,4.0,71,0.00,,,0.00,,2013-05-02 13:21:00,
2013-05-02 09:32:00,65.0,55.0,30.20,SW,225,0.0,1.0,71,0.00,,,0.00,,2013-05-02 13:32:00,
2013-05-02 09:42:00,65.0,55.0,30.20,SW,225,0.0,1.0,71,0.00,,,0.00,,2013-05-02 13:42:00,
2013-05-02 09:52:00,67.0,56.0,30.21,SSW,198,4.0,5.0,68,0.00,,,0.00,,2013-05-02 13:52:00,
2013-05-02 10:02:00,68.0,56.0,30.21,West,270,2.0,3.0,66,0.00,,,0.00,,2013-05-02 14:02:00,
2013-05-02 10:11:00,68.0,56.0,30.21,West,270,2.0,3.0,66,0.00,,,0.00,,2013-05-02 14:11:00,
2013-05-02 10:22:00,70.0,57.0,30.21,SE,135,0.0,5.0,64,0.00,,,0.00,,2013-05-02 14:22:00,
2013-05-02 10:32:00,70.0,57.0,30.21,SSE,166,2.0,4.0,63,0.00,,,0.00,,2013-05-02 14:32:00,
2013-05-02 10:42:00,70.0,57.0,30.21,SSE,166,2.0,4.0,63,0.00,,,0.00,,2013-05-02 14:42:00,
2013-05-02 10:52:00,72.0,58.0,30.21,SSW,206,4.0,8.0,61,0.00,,,0.00,,2013-05-02 14:52:00,
2013-05-02 11:02:00,72.0,57.0,30.21,SSW,202,2.0,4.0,60,0.00,,,0.00,,2013-05-02 15:02:00,
2013-05-02 11:12:00,72.0,57.0,30.21,SSW,202,2.0,4.0,60,0.00,,,0.00,,2013-05-02 15:12:00,
2013-05-02 11:22:00,72.0,57.0,30.21,SSE,157,4.0,5.0,59,0.00,,,0.00,,2013-05-02 15:22:00,
2013-05-02 11:33:00,73.0,58.0,30.21,WSW,247,1.0,5.0,59,0.00,,,0.00,,2013-05-02 15:33:00,
2013-05-02 11:43:00,73.0,58.0,30.21,WSW,247,1.0,5.0,59,0.00,,,0.00,,2013-05-02 15:43:00,
2013-05-02 12:03:00,72.0,57.0,30.20,South,180,3.0,4.0,59,0.00,,,0.00,,2013-05-02 16:03:00,
2013-05-02 12:13:00,72.0,57.0,30.20,South,180,3.0,4.0,59,0.00,,,0.00,,2013-05-02 16:13:00,
2013-05-02 12:22:00,71.0,55.0,30.19,South,180,0.0,5.0,57,0.00,,,0.00,,2013-05-02 16:22:00,
2013-05-02 12:32:00,71.0,54.0,30.19,WSW,247,3.0,3.0,56,0.00,,,0.00,,2013-05-02 16:32:00,
2013-05-02 12:43:00,70.0,53.0,30.19,South,180,1.0,2.0,55,0.00,,,0.00,,2013-05-02 16:43:00,
2013-05-02 12:52:00,70.0,53.0,30.19,South,180,1.0,2.0,55,0.00,,,0.00,,2013-05-02 16:52:00,
2013-05-02 13:02:00,70.0,53.0,30.18,ESE,118,2.0,4.0,55,0.00,,,0.00,,2013-05-02 17:02:00,
2013-05-02 13:12:00,70.0,53.0,30.18,SW,225,3.0,4.0,54,0.00,,,0.00,,2013-05-02 17:12:00,
2013-05-02 13:22:00,70.0,53.0,30.18,SW,225,3.0,4.0,54,0.00,,,0.00,,2013-05-02 17:22:00,
2013-05-02 13:32:00,70.0,53.0,30.17,SSE,157,1.0,3.0,54,0.00,,,0.00,,2013-05-02 17:32:00,
2013-05-02 13:42:00,70.0,53.0,30.17,SSE,157,1.0,3.0,54,0.00,,,0.00,,2013-05-02 17:42:00,
2013-05-02 13:52:00,70.0,52.0,30.17,SSW,202,6.0,6.0,53,0.00,,,0.00,,2013-05-02 17:52:00,
2013-05-02 14:01:00,70.0,51.0,30.17,SE,129,1.0,6.0,51,0.00,,,0.00,,2013-05-02 18:01:00,
2013-05-02 14:11:00,70.0,51.0,30.17,SE,129,1.0,6.0,51,0.00,,,0.00,,2013-05-02 18:11:00,
2013-05-02 14:22:00,70.0,52.0,30.16,ESE,112,1.0,4.0,52,0.00,,,0.00,,2013-05-02 18:22:00,
2013-05-02 14:32:00,70.0,51.0,30.17,WSW,247,8.0,8.0,51,0.00,,,0.00,,2013-05-02 18:32:00,
2013-05-02 14:42:00,70.0,51.0,30.17,WSW,247,8.0,8.0,51,0.00,,,0.00,,2013-05-02 18:42:00,
2013-05-02 14:52:00,71.0,52.0,30.16,East,90,2.0,6.0,51,0.00,,,0.00,,2013-05-02 18:52:00,
2013-05-02 15:01:00,71.0,52.0,30.16,SSE,154,5.0,6.0,51,0.00,,,0.00,,2013-05-02 19:01:00,
2013-05-02 15:11:00,71.0,52.0,30.16,SSE,154,5.0,6.0,51,0.00,,,0.00,,2013-05-02 19:11:00,
2013-05-02 15:22:00,72.0,52.0,30.15,ESE,112,2.0,7.0,50,0.00,,,0.00,,2013-05-02 19:22:00,
2013-05-02 15:32:00,72.0,52.0,30.15,ENE,75,2.0,2.0,50,0.00,,,0.00,,2013-05-02 19:32:00,
2013-05-02 15:42:00,72.0,52.0,30.15,ENE,75,2.0,2.0,50,0.00,,,0.00,,2013-05-02 19:42:00,
2013-05-02 15:52:00,73.0,53.0,30.14,South,180,7.0,7.0,50,0.00,,,0.00,,2013-05-02 19:52:00,
2013-05-02 16:02:00,73.0,53.0,30.14,SW,225,0.0,2.0,50,0.00,,,0.00,,2013-05-02 20:02:00,
2013-05-02 16:11:00,74.0,55.0,30.13,ESE,114,2.0,4.0,51,0.00,,,0.00,,2013-05-02 20:11:00,
2013-05-02 16:22:00,74.0,55.0,30.13,ESE,114,2.0,4.0,51,0.00,,,0.00,,2013-05-02 20:22:00,
2013-05-02 16:32:00,74.0,54.0,30.13,East,98,2.0,6.0,50,0.00,,,0.00,,2013-05-02 20:32:00,
2013-05-02 16:41:00,74.0,54.0,30.13,East,98,2.0,6.0,50,0.00,,,0.00,,2013-05-02 20:41:00,
2013-05-02 16:52:00,75.0,55.0,30.12,SE,135,5.0,5.0,50,0.00,,,0.00,,2013-05-02 20:52:00,
2013-05-02 17:01:00,75.0,56.0,30.12,ENE,74,3.0,6.0,51,0.00,,,0.00,,2013-05-02 21:01:00,
2013-05-02 17:12:00,75.0,56.0,30.12,ENE,74,3.0,6.0,51,0.00,,,0.00,,2013-05-02 21:12:00,
2013-05-02 17:21:00,75.0,56.0,30.12,East,90,2.0,4.0,51,0.00,,,0.00,,2013-05-02 21:21:00,
2013-05-02 17:33:00,75.0,55.0,30.12,East,90,3.0,7.0,50,0.00,,,0.00,,2013-05-02 21:33:00,
2013-05-02 17:42:00,75.0,55.0,30.12,East,90,3.0,7.0,50,0.00,,,0.00,,2013-05-02 21:42:00,
2013-05-02 17:53:00,75.0,55.0,30.11,SSW,210,2.0,7.0,50,0.00,,,0.00,,2013-05-02 21:53:00,
2013-05-02 18:03:00,75.0,55.0,30.12,ESE,114,6.0,7.0,50,0.00,,,0.00,,2013-05-02 22:03:00,
2013-05-02 18:12:00,75.0,55.0,30.12,ESE,114,6.0,7.0,50,0.00,,,0.00,,2013-05-02 22:12:00,
2013-05-02 18:22:00,75.0,55.0,30.11,East,82,2.0,5.0,50,0.00,,,0.00,,2013-05-02 22:22:00,
2013-05-02 18:32:00,75.0,55.0,30.11,East,95,2.0,4.0,50,0.00,,,0.00,,2013-05-02 22:32:00,
2013-05-02 18:42:00,75.0,55.0,30.11,East,95,2.0,4.0,50,0.00,,,0.00,,2013-05-02 22:42:00,
2013-05-02 18:53:00,74.0,54.0,30.11,East,97,1.0,7.0,50,0.00,,,0.00,,2013-05-02 22:53:00,
2013-05-02 19:02:00,74.0,55.0,30.10,ESE,112,7.0,7.0,51,0.00,,,0.00,,2013-05-02 23:02:00,
2013-05-02 19:11:00,74.0,55.0,30.10,ESE,112,7.0,7.0,51,0.00,,,0.00,,2013-05-02 23:11:00,
2013-05-02 19:22:00,73.0,54.0,30.10,SE,135,1.0,5.0,51,0.00,,,0.00,,2013-05-02 23:22:00,
2013-05-02 19:32:00,73.0,54.0,30.10,ESE,112,1.0,2.0,51,0.00,,,0.00,,2013-05-02 23:32:00,
2013-05-02 19:42:00,73.0,54.0,30.10,ESE,112,1.0,2.0,51,0.00,,,0.00,,2013-05-02 23:42:00,
2013-05-02 19:52:00,72.0,54.0,30.10,ESE,112,3.0,3.0,53,0.00,,,0.00,,2013-05-02 23:52:00,
2013-05-02 20:01:00,72.0,54.0,30.10,East,90,2.0,4.0,53,0.00,,,0.00,,2013-05-03 00:01:00,
2013-05-02 20:11:00,72.0,54.0,30.10,ESE,112,2.0,2.0,54,0.00,,,0.00,,2013-05-03 00:11:00,
2013-05-02 20:21:00,72.0,54.0,30.10,ESE,112,2.0,2.0,54,0.00,,,0.00,,2013-05-03 00:21:00,
2013-05-02 20:31:00,72.0,54.0,30.10,SE,135,0.0,0.0,54,0.00,,,0.00,,2013-05-03 00:31:00,
2013-05-02 20:42:00,72.0,54.0,30.10,SE,135,0.0,0.0,54,0.00,,,0.00,,2013-05-03 00:42:00,
2013-05-02 20:52:00,71.0,54.0,30.10,ESE,112,0.0,1.0,55,0.00,,,0.00,,2013-05-03 00:52:00,
2013-05-02 21:01:00,70.0,53.0,30.10,ESE,112,0.0,0.0,55,0.00,,,0.00,,2013-05-03 01:01:00,
2013-05-02 21:11:00,70.0,53.0,30.10,ESE,112,0.0,0.0,55,0.00,,,0.00,,2013-05-03 01:11:00,
2013-05-02 21:21:00,69.0,53.0,30.10,ESE,112,0.0,0.0,56,0.00,,,0.00,,2013-05-03 01:21:00,
2013-05-02 21:32:00,69.0,53.0,30.10,ESE,112,0.0,0.0,56,0.00,,,0.00,,2013-05-03 01:32:00,
2013-05-02 21:42:00,69.0,53.0,30.10,ESE,112,0.0,0.0,56,0.00,,,0.00,,2013-05-03 01:42:00,
2013-05-02 21:52:00,68.0,53.0,30.10,ESE,112,0.0,0.0,58,0.00,,,0.00,,2013-05-03 01:52:00,
2013-05-02 22:01:00,68.0,53.0,30.10,ESE,112,0.0,0.0,59,0.00,,,0.00,,2013-05-03 02:01:00,
2013-05-02 22:11:00,68.0,53.0,30.10,ESE,112,0.0,0.0,59,0.00,,,0.00,,2013-05-03 02:11:00,
2013-05-02 22:22:00,67.0,53.0,30.10,ESE,112,0.0,0.0,60,0.00,,,0.00,,2013-05-03 02:22:00,
2013-05-02 22:32:00,67.0,53.0,30.11,ESE,112,0.0,0.0,60,0.00,,,0.00,,2013-05-03 02:32:00,
2013-05-02 22:42:00,67.0,53.0,30.11,ESE,112,0.0,0.0,60,0.00,,,0.00,,2013-05-03 02:42:00,
2013-05-02 22:52:00,67.0,53.0,30.11,ESE,112,0.0,0.0,61,0.00,,,0.00,,2013-05-03 02:52:00,
2013-05-02 23:01:00,66.0,52.0,30.11,ESE,112,0.0,0.0,61,0.00,,,0.00,,2013-05-03 03:01:00,
2013-05-02 23:11:00,66.0,53.0,30.11,ESE,112,0.0,0.0,62,0.00,,,0.00,,2013-05-03 03:11:00,
2013-05-02 23:21:00,66.0,53.0,30.11,ESE,112,0.0,0.0,62,0.00,,,0.00,,2013-05-03 03:21:00,
2013-05-02 23:33:00,66.0,53.0,30.10,ESE,112,0.0,0.0,62,0.00,,,0.00,,2013-05-03 03:33:00,
2013-05-02 23:42:00,66.0,53.0,30.10,ESE,112,0.0,0.0,62,0.00,,,0.00,,2013-05-03 03:42:00,
2013-05-02 23:53:00,65.0,52.0,30.10,ESE,112,0.0,0.0,63,0.00,,,0.00,,2013-05-03 03:53:00,